| time (UTC) | temp F | wind direction | speed knots | gust knots | rain 1hr in | rain 24hr in | rain mn in | humidity % | barometer mb |
| 20260906015251 | 62 | 229 | 0.9 | 2.6 | 0.00 | 0.15 | 0.15 | 82 | 1015.7 |
| 20260906014751 | 62 | 231 | 0.9 | 2.6 | 0.00 | 0.15 | 0.15 | 81 | 1015.7 |
| 20260906014250 | 62 | 223 | 1.7 | 4.3 | 0.00 | 0.15 | 0.15 | 81 | 1015.6 |
| 20260906013749 | 63 | 244 | 1.7 | 4.3 | 0.00 | 0.15 | 0.15 | 80 | 1015.6 |
| 20260906013249 | 63 | 210 | 1.7 | 3.5 | 0.00 | 0.15 | 0.15 | 79 | 1015.6 |
| 20260906012748 | 64 | 221 | 0.9 | 2.6 | 0.00 | 0.15 | 0.15 | 78 | 1015.6 |
| 20260906012249 | 64 | 219 | 0.9 | 3.5 | 0.00 | 0.15 | 0.15 | 79 | 1015.6 |
| 20260906011748 | 64 | 208 | 1.7 | 5.2 | 0.00 | 0.15 | 0.15 | 79 | 1015.6 |
| 20260906011249 | 64 | 291 | 1.7 | 5.2 | 0.00 | 0.15 | 0.15 | 78 | 1015.5 |
| 20260906010748 | 64 | 315 | 0.9 | 4.3 | 0.00 | 0.15 | 0.15 | 79 | 1015.5 |
| 20260906010248 | 64 | 244 | 0.9 | 4.3 | 0.00 | 0.15 | 0.15 | 79 | 1015.4 |
| 20260906005749 | 64 | 259 | 0.9 | 4.3 | 0.00 | 0.15 | 0.15 | 79 | 1015.4 |
| 20260906005249 | 64 | 257 | 0.9 | 3.5 | 0.00 | 0.15 | 0.15 | 79 | 1015.4 |
| 20260906004747 | 64 | 258 | 0.9 | 3.5 | 0.00 | 0.15 | 0.15 | 79 | 1015.4 |
| 20260906004248 | 64 | 239 | 0.9 | 3.5 | 0.00 | 0.15 | 0.15 | 79 | 1015.4 |
| 20260906003747 | 64 | 240 | 0.9 | 3.5 | 0.00 | 0.15 | 0.15 | 79 | 1015.4 |
| 20260906003248 | 64 | 267 | 0.9 | 2.6 | 0.00 | 0.15 | 0.15 | 78 | 1015.4 |
| 20260906002744 | 64 | 257 | 0.9 | 2.6 | 0.00 | 0.15 | 0.15 | 76 | 1015.5 |
| 20260906002246 | 65 | 246 | 0.9 | 2.6 | 0.00 | 0.15 | 0.15 | 76 | 1015.6 |
| 20260906001744 | 65 | 271 | 0.9 | 2.6 | 0.00 | 0.15 | 0.15 | 76 | 1015.6 |
| 20260906001244 | 65 | 285 | 0.9 | 2.6 | 0.00 | 0.15 | 0.15 | 75 | 1015.6 |
| 20260906000744 | 65 | 267 | 1.7 | 6.1 | 0.00 | 0.15 | 0.15 | 75 | 1015.6 |
| 20260906000248 | 66 | 285 | 1.7 | 6.1 | 0.00 | 0.15 | 0.15 | 75 | 1015.6 |
| 20260905235746 | 66 | 310 | 1.7 | 3.5 | 0.00 | 0.15 | 0.15 | 74 | 1015.5 |
| 20260905235246 | 66 | 250 | 1.7 | 4.3 | 0.00 | 0.15 | 0.15 | 77 | 1015.5 |
| 20260905234752 | 66 | 269 | 1.7 | 2.6 | 0.00 | 0.16 | 0.15 | 73 | 1015.5 |
| 20260905234744 | 65 | 270 | 1.7 | 4.3 | 0.00 | 0.15 | 0.15 | 73 | 1015.5 |
| 20260905234246 | 66 | 306 | 0.9 | 2.6 | 0.00 | 0.15 | 0.15 | 73 | 1015.5 |
| 20260905233244 | 66 | 295 | 1.7 | 5.2 | 0.00 | 0.16 | 0.15 | 75 | 1015.5 |
| 20260905232744 | 65 | 273 | 0.9 | 5.2 | 0.00 | 0.16 | 0.15 | 76 | 1015.6 |
| 20260905232244 | 65 | 281 | 0.9 | 3.5 | 0.00 | 0.16 | 0.15 | 77 | 1015.5 |
| 20260905231745 | 65 | 315 | 0.9 | 3.5 | 0.00 | 0.16 | 0.15 | 75 | 1015.6 |
| 20260905231246 | 65 | 344 | 0.9 | 3.5 | 0.00 | 0.16 | 0.15 | 77 | 1015.7 |
| 20260905230745 | 65 | 288 | 0.9 | 3.5 | 0.00 | 0.17 | 0.15 | 78 | 1015.7 |
| 20260905230244 | 65 | 307 | 0.9 | 3.5 | 0.00 | 0.17 | 0.15 | 80 | 1015.7 |
| 20260905225744 | 64 | 248 | 0.9 | 4.3 | 0.00 | 0.17 | 0.15 | 79 | 1015.8 |
| 20260905225244 | 65 | 302 | 0.9 | 4.3 | 0.00 | 0.17 | 0.15 | 80 | 1015.8 |
| 20260905224744 | 65 | 216 | 0.9 | 3.5 | 0.00 | 0.17 | 0.15 | 77 | 1015.9 |
| 20260905224245 | 65 | 306 | 1.7 | 3.5 | 0.00 | 0.17 | 0.15 | 78 | 1015.9 |
| 20260905223744 | 65 | 288 | 0.9 | 3.5 | 0.00 | 0.17 | 0.15 | 78 | 1015.9 |
| 20260905223245 | 65 | 285 | 1.7 | 3.5 | 0.00 | 0.17 | 0.15 | 79 | 1016.0 |
| 20260905222744 | 65 | 306 | 1.7 | 4.3 | 0.00 | 0.17 | 0.15 | 82 | 1016.1 |
| 20260905222243 | 65 | 198 | 1.7 | 4.3 | 0.00 | 0.17 | 0.15 | 82 | 1016.1 |
| 20260905221743 | 65 | 5 | 1.7 | 3.5 | 0.00 | 0.17 | 0.15 | 82 | 1016.1 |
| 20260905221243 | 64 | 297 | 1.7 | 4.3 | 0.00 | 0.17 | 0.15 | 79 | 1016.1 |
| 20260905220742 | 64 | 237 | 0.9 | 4.3 | 0.00 | 0.17 | 0.15 | 85 | 1016.2 |
| 20260905220248 | 64 | 302 | 0.9 | 4.3 | 0.00 | 0.17 | 0.15 | 82 | 1016.3 |
| 20260905220242 | 64 | 278 | 1.7 | 4.3 | 0.00 | 0.17 | 0.15 | 81 | 1016.2 |
| 20260905215243 | 64 | 312 | 0.9 | 3.5 | 0.02 | 0.17 | 0.15 | 84 | 1016.3 |
| 20260905214746 | 63 | 287 | 0.9 | 3.5 | 0.04 | 0.17 | 0.15 | 86 | 1016.4 |
| 20260905214741 | 63 | 238 | 0.9 | 3.5 | 0.03 | 0.17 | 0.15 | 85 | 1016.4 |
| 20260905213740 | 62 | 306 | 0.9 | 2.6 | 0.05 | 0.17 | 0.15 | 89 | 1016.4 |
| 20260905213238 | 62 | 290 | 0.9 | 2.6 | 0.07 | 0.17 | 0.15 | 88 | 1016.4 |
| 20260905212738 | 61 | 300 | 0.9 | 2.6 | 0.09 | 0.17 | 0.15 | 88 | 1016.4 |
| 20260905212238 | 61 | 296 | 0.0 | 2.6 | 0.12 | 0.17 | 0.15 | 89 | 1016.4 |
| 20260905211739 | 61 | 226 | 0.0 | 0.0 | 0.13 | 0.18 | 0.15 | 87 | 1016.4 |
| 20260905211236 | 61 | 221 | 0.0 | 0.0 | 0.14 | 0.18 | 0.15 | 88 | 1016.7 |
| 20260905210737 | 60 | 221 | 0.0 | 0.0 | 0.14 | 0.19 | 0.15 | 90 | 1016.7 |
| 20260905210236 | 60 | 221 | 0.0 | 0.0 | 0.14 | 0.19 | 0.15 | 89 | 1016.8 |
| 20260905205736 | 60 | 221 | 0.0 | 1.7 | 0.14 | 0.19 | 0.15 | 88 | 1016.8 |
| 20260905205240 | 60 | 221 | 0.0 | 1.7 | 0.11 | 0.16 | 0.12 | 87 | 1016.8 |
| 20260905205236 | 60 | 221 | 0.0 | 1.7 | 0.12 | 0.17 | 0.13 | 89 | 1016.8 |
| 20260905204240 | 60 | 221 | 0.9 | 2.6 | 0.09 | 0.14 | 0.11 | 86 | 1016.8 |
| 20260905204236 | 60 | 221 | 0.9 | 1.7 | 0.10 | 0.15 | 0.11 | 88 | 1016.8 |
| 20260905203237 | 61 | 221 | 0.9 | 2.6 | 0.07 | 0.12 | 0.08 | 86 | 1016.8 |
| 20260905202736 | 61 | 192 | 0.0 | 1.7 | 0.05 | 0.10 | 0.06 | 85 | 1016.8 |
| 20260905202236 | 62 | 187 | 0.0 | 1.7 | 0.02 | 0.07 | 0.03 | 83 | 1016.8 |
| 20260905201734 | 62 | 186 | 0.0 | 1.7 | 0.01 | 0.06 | 0.02 | 82 | 1016.8 |
| 20260905201234 | 62 | 168 | 0.0 | 1.7 | 0.00 | 0.05 | 0.01 | 80 | 1016.8 |
| 20260905200734 | 62 | 168 | 0.0 | 2.6 | 0.00 | 0.06 | 0.01 | 82 | 1016.8 |
| 20260905200234 | 62 | 167 | 0.0 | 2.6 | 0.00 | 0.06 | 0.01 | 83 | 1016.7 |
| 20260905195735 | 62 | 38 | 0.9 | 1.7 | 0.00 | 0.06 | 0.01 | 81 | 1016.7 |
| 20260905195239 | 62 | 355 | 1.7 | 3.5 | 0.00 | 0.07 | 0.01 | 83 | 1016.8 |
| 20260905195235 | 62 | 303 | 0.9 | 3.5 | 0.00 | 0.07 | 0.01 | 82 | 1016.8 |
| 20260905194234 | 62 | 24 | 1.7 | 3.5 | 0.00 | 0.07 | 0.01 | 83 | 1016.8 |
| 20260905193734 | 62 | 9 | 0.9 | 3.5 | 0.00 | 0.08 | 0.01 | 83 | 1016.8 |
| 20260905193235 | 62 | 20 | 0.9 | 6.1 | 0.00 | 0.08 | 0.01 | 83 | 1016.9 |
| 20260905192733 | 62 | 10 | 0.9 | 6.1 | 0.00 | 0.08 | 0.01 | 85 | 1017.0 |
| 20260905192238 | 62 | 28 | 0.9 | 6.1 | 0.00 | 0.08 | 0.01 | 83 | 1016.9 |
| 20260905191732 | 62 | 95 | 0.9 | 6.1 | 0.00 | 0.08 | 0.01 | 85 | 1017.0 |
| 20260905191232 | 62 | 288 | 0.9 | 3.5 | 0.00 | 0.08 | 0.01 | 84 | 1017.0 |
| 20260905190732 | 62 | 34 | 0.9 | 2.6 | 0.00 | 0.08 | 0.01 | 84 | 1017.0 |
| 20260905190232 | 62 | 155 | 0.9 | 3.5 | 0.00 | 0.08 | 0.01 | 87 | 1017.0 |
| 20260905185734 | 61 | 113 | 0.9 | 3.5 | 0.00 | 0.08 | 0.01 | 88 | 1017.1 |
| 20260905185232 | 60 | 19 | 0.9 | 3.5 | 0.00 | 0.08 | 0.01 | 90 | 1017.0 |
| 20260905184732 | 60 | 355 | 0.9 | 2.6 | 0.00 | 0.08 | 0.01 | 88 | 1017.1 |
| 20260905184233 | 59 | 65 | 0.9 | 2.6 | 0.00 | 0.08 | 0.01 | 87 | 1017.1 |
| 20260905183736 | 60 | 225 | 0.9 | 3.5 | 0.00 | 0.08 | 0.01 | 89 | 1017.1 |
| 20260905183731 | 59 | 275 | 0.9 | 3.5 | 0.00 | 0.08 | 0.01 | 89 | 1017.1 |
| 20260905183230 | 59 | 180 | 0.9 | 3.5 | 0.00 | 0.08 | 0.01 | 88 | 1017.1 |
| 20260905182230 | 59 | 44 | 0.9 | 3.5 | 0.00 | 0.08 | 0.01 | 90 | 1017.1 |
| 20260905181736 | 59 | 5 | 0.9 | 3.5 | 0.00 | 0.08 | 0.01 | 91 | 1017.1 |
| 20260905181730 | 59 | 148 | 0.0 | 1.7 | 0.00 | 0.08 | 0.01 | 91 | 1017.1 |
| 20260905181345 | 58 | 0 | 0.9 | 3.5 | 0.00 | 0.08 | 0.01 | 90 | 1017.2 |
| 20260905180842 | 58 | 9 | 0.9 | 2.6 | 0.00 | 0.08 | 0.01 | 90 | 1017.2 |
| 20260905180349 | 58 | 5 | 0.9 | 2.6 | 0.00 | 0.08 | 0.01 | 90 | 1017.2 |
| 20260905175231 | 58 | 25 | 0.9 | 4.3 | 0.00 | 0.08 | 0.01 | 90 | 1017.2 |
| 20260905174734 | 58 | 98 | 0.9 | 4.3 | 0.00 | 0.08 | 0.01 | 89 | 1017.1 |
| 20260905174728 | 58 | 150 | 0.9 | 4.3 | 0.00 | 0.08 | 0.01 | 89 | 1017.1 |
| 20260905173728 | 58 | 136 | 0.9 | 4.3 | 0.00 | 0.08 | 0.01 | 90 | 1017.0 |
| 20260905173228 | 59 | 181 | 0.9 | 7.8 | 0.00 | 0.08 | 0.01 | 90 | 1017.0 |
| 20260905172734 | 59 | 145 | 0.9 | 1.7 | 0.00 | 0.08 | 0.01 | 89 | 1017.0 |
| 20260905172730 | 59 | 143 | 0.9 | 7.8 | 0.00 | 0.08 | 0.01 | 90 | 1017.0 |
| 20260905171733 | 58 | 96 | 0.9 | 4.3 | 0.00 | 0.08 | 0.01 | 90 | 1017.0 |
| 20260905171729 | 58 | 150 | 0.9 | 3.5 | 0.00 | 0.08 | 0.01 | 90 | 1017.0 |
| 20260905171342 | 58 | 172 | 0.9 | 4.3 | 0.00 | 0.08 | 0.01 | 91 | 1017.0 |
| 20260905170841 | 58 | 128 | 0.9 | 4.3 | 0.00 | 0.08 | 0.01 | 92 | 1017.0 |
| 20260905170341 | 58 | 180 | 0.9 | 4.3 | 0.00 | 0.08 | 0.01 | 92 | 1016.9 |
| 20260905165229 | 58 | 169 | 0.9 | 3.5 | 0.00 | 0.08 | 0.01 | 91 | 1016.9 |
| 20260905164728 | 58 | 181 | 0.9 | 3.5 | 0.00 | 0.08 | 0.01 | 92 | 1017.0 |
| 20260905164231 | 58 | 184 | 0.9 | 4.3 | 0.00 | 0.08 | 0.01 | 91 | 1017.0 |
| 20260905164226 | 58 | 172 | 0.9 | 4.3 | 0.00 | 0.08 | 0.01 | 91 | 1017.0 |
| 20260905163840 | 58 | 178 | 0.9 | 5.2 | 0.00 | 0.08 | 0.01 | 92 | 1016.9 |
| 20260905162724 | 58 | 172 | 0.9 | 5.2 | 0.00 | 0.08 | 0.01 | 91 | 1016.9 |
| 20260905162226 | 58 | 175 | 0.9 | 3.5 | 0.00 | 0.08 | 0.01 | 91 | 1016.9 |
| 20260905161724 | 58 | 147 | 0.9 | 2.6 | 0.00 | 0.08 | 0.01 | 90 | 1016.9 |
| 20260905161221 | 58 | 184 | 0.9 | 2.6 | 0.00 | 0.08 | 0.01 | 91 | 1016.9 |
| 20260905160724 | 58 | 0 | 0.0 | 2.6 | 0.00 | 0.08 | 0.01 | 91 | 1016.9 |
| 20260905160222 | 58 | 231 | 0.0 | 1.7 | 0.00 | 0.08 | 0.01 | 91 | 1016.9 |
| 20260905155727 | 58 | 304 | 0.0 | 0.0 | 0.00 | 0.08 | 0.01 | 92 | 1016.9 |
| 20260905155723 | 58 | 304 | 0.0 | 0.0 | 0.00 | 0.08 | 0.01 | 92 | 1016.9 |
| 20260905154723 | 58 | 304 | 0.0 | 0.0 | 0.00 | 0.08 | 0.01 | 94 | 1016.9 |
| 20260905154222 | 57 | 318 | 0.0 | 0.0 | 0.00 | 0.08 | 0.01 | 94 | 1016.9 |
| 20260905153721 | 57 | 318 | 0.0 | 0.0 | 0.00 | 0.08 | 0.01 | 93 | 1016.9 |
| 20260905153222 | 57 | 268 | 0.0 | 0.0 | 0.00 | 0.08 | 0.01 | 94 | 1016.9 |
| 20260905152721 | 57 | 268 | 0.0 | 0.0 | 0.00 | 0.08 | 0.01 | 94 | 1016.9 |
| 20260905152221 | 57 | 268 | 0.0 | 0.0 | 0.00 | 0.08 | 0.01 | 94 | 1016.9 |
| 20260905151721 | 57 | 268 | 0.0 | 0.0 | 0.00 | 0.08 | 0.01 | 95 | 1016.9 |
| 20260905151221 | 57 | 256 | 0.0 | 0.0 | 0.00 | 0.08 | 0.01 | 95 | 1016.9 |
| 20260905150725 | 56 | 248 | 0.0 | 0.0 | 0.00 | 0.08 | 0.01 | 95 | 1016.8 |
| 20260905150721 | 56 | 252 | 0.0 | 0.0 | 0.00 | 0.08 | 0.01 | 95 | 1016.9 |
| 20260905145723 | 56 | 248 | 0.0 | 0.0 | 0.00 | 0.08 | 0.01 | 94 | 1016.9 |
| 20260905145221 | 56 | 247 | 0.0 | 0.0 | 0.00 | 0.08 | 0.01 | 94 | 1016.8 |
| 20260905144725 | 56 | 321 | 0.0 | 0.0 | 0.00 | 0.08 | 0.01 | 95 | 1016.8 |
| 20260905144720 | 56 | 249 | 0.0 | 0.0 | 0.00 | 0.08 | 0.01 | 95 | 1016.8 |
| 20260905144333 | 56 | 321 | 0.0 | 0.0 | 0.00 | 0.08 | 0.01 | 95 | 1016.8 |
| 20260905143219 | 56 | 321 | 0.0 | 0.0 | 0.00 | 0.08 | 0.01 | 95 | 1016.8 |
| 20260905142719 | 56 | 317 | 0.0 | 0.0 | 0.00 | 0.08 | 0.01 | 95 | 1016.8 |
| 20260905142220 | 56 | 317 | 0.0 | 0.0 | 0.01 | 0.08 | 0.01 | 95 | 1016.8 |
| 20260905141721 | 56 | 318 | 0.0 | 0.0 | 0.01 | 0.08 | 0.01 | 95 | 1016.8 |
| 20260905141221 | 56 | 318 | 0.0 | 0.0 | 0.01 | 0.08 | 0.01 | 95 | 1016.7 |
| 20260905140720 | 56 | 317 | 0.0 | 0.0 | 0.01 | 0.08 | 0.01 | 95 | 1016.8 |
| 20260905140220 | 56 | 225 | 0.0 | 0.0 | 0.01 | 0.08 | 0.01 | 95 | 1016.7 |
| 20260905135720 | 56 | 217 | 0.0 | 0.0 | 0.01 | 0.08 | 0.01 | 95 | 1016.7 |
| 20260905135219 | 56 | 217 | 0.0 | 0.0 | 0.01 | 0.08 | 0.01 | 94 | 1016.6 |
| 20260905134719 | 56 | 217 | 0.0 | 0.0 | 0.01 | 0.08 | 0.01 | 94 | 1016.7 |
| 20260905134220 | 56 | 217 | 0.0 | 0.0 | 0.01 | 0.08 | 0.01 | 94 | 1016.7 |
| 20260905133719 | 56 | 221 | 0.0 | 0.0 | 0.01 | 0.08 | 0.01 | 94 | 1016.6 |
| 20260905133219 | 56 | 221 | 0.0 | 0.0 | 0.01 | 0.08 | 0.01 | 95 | 1016.6 |
| 20260905132725 | 56 | 221 | 0.0 | 0.0 | 0.00 | 0.07 | 0.00 | 94 | 1016.4 |
| 20260905132719 | 56 | 221 | 0.0 | 0.0 | 0.01 | 0.08 | 0.01 | 94 | 1016.4 |
| 20260905131723 | 56 | 173 | 0.0 | 0.0 | 0.00 | 0.07 | 0.00 | 95 | 1016.6 |
| 20260905131719 | 56 | 173 | 0.0 | 0.0 | 0.00 | 0.07 | 0.00 | 94 | 1016.6 |
| 20260905130720 | 56 | 173 | 0.0 | 0.0 | 0.00 | 0.07 | 0.00 | 95 | 1016.6 |
| 20260905130219 | 56 | 173 | 0.0 | 0.0 | 0.00 | 0.07 | 0.00 | 94 | 1016.6 |
| 20260905125720 | 56 | 173 | 0.0 | 0.0 | 0.00 | 0.07 | 0.00 | 94 | 1016.4 |
| 20260905125219 | 56 | 173 | 0.0 | 0.0 | 0.00 | 0.07 | 0.00 | 94 | 1016.4 |
| 20260905124721 | 55 | 173 | 0.0 | 0.0 | 0.00 | 0.08 | 0.00 | 94 | 1016.3 |
| 20260905124228 | 55 | 173 | 0.0 | 0.0 | 0.00 | 0.08 | 0.00 | 94 | 1016.3 |
| 20260905124224 | 55 | 173 | 0.0 | 0.0 | 0.00 | 0.08 | 0.00 | 94 | 1016.3 |
| 20260905123219 | 55 | 173 | 0.0 | 0.0 | 0.00 | 0.08 | 0.00 | 94 | 1016.3 |
| 20260905122720 | 55 | 173 | 0.0 | 0.0 | 0.00 | 0.08 | 0.00 | 94 | 1016.3 |
| 20260905122225 | 55 | 173 | 0.0 | 0.0 | 0.00 | 0.08 | 0.00 | 94 | 1016.2 |
| 20260905122219 | 55 | 173 | 0.0 | 0.0 | 0.00 | 0.08 | 0.00 | 94 | 1016.3 |
| 20260905121835 | 55 | 173 | 0.0 | 0.0 | 0.00 | 0.08 | 0.00 | 94 | 1016.1 |
| 20260905121720 | 55 | 173 | 0.0 | 0.0 | 0.00 | 0.08 | 0.00 | 94 | 1016.2 |
| 20260905120217 | 55 | 173 | 0.0 | 0.0 | 0.00 | 0.08 | 0.00 | 94 | 1016.1 |
| 20260905115717 | 55 | 173 | 0.0 | 0.0 | 0.00 | 0.09 | 0.00 | 94 | 1016.2 |
| 20260905115217 | 55 | 172 | 0.0 | 0.0 | 0.00 | 0.09 | 0.00 | 94 | 1016.2 |
| 20260905114717 | 55 | 172 | 0.0 | 0.0 | 0.00 | 0.09 | 0.00 | 94 | 1016.2 |
| 20260905114218 | 55 | 172 | 0.0 | 0.0 | 0.00 | 0.09 | 0.00 | 93 | 1016.1 |
| 20260905113718 | 55 | 172 | 0.0 | 1.7 | 0.00 | 0.09 | 0.00 | 94 | 1016.1 |
| 20260905113217 | 55 | 172 | 0.0 | 1.7 | 0.00 | 0.09 | 0.00 | 93 | 1016.1 |
| 20260905112717 | 56 | 172 | 0.0 | 1.7 | 0.00 | 0.09 | 0.00 | 93 | 1016.1 |
| 20260905112218 | 56 | 172 | 0.0 | 1.7 | 0.00 | 0.09 | 0.00 | 93 | 1016.1 |
| 20260905111717 | 56 | 172 | 0.0 | 0.0 | 0.00 | 0.09 | 0.00 | 94 | 1016.0 |
| 20260905111219 | 56 | 172 | 0.0 | 1.7 | 0.00 | 0.09 | 0.00 | 94 | 1016.0 |
| 20260905111215 | 56 | 172 | 0.0 | 1.7 | 0.00 | 0.09 | 0.00 | 94 | 1016.0 |
| 20260905110215 | 56 | 172 | 0.0 | 1.7 | 0.00 | 0.09 | 0.00 | 94 | 1016.0 |
| 20260905105715 | 56 | 172 | 0.0 | 1.7 | 0.00 | 0.09 | 0.00 | 94 | 1016.0 |
| 20260905105215 | 56 | 172 | 0.0 | 1.7 | 0.00 | 0.09 | 0.00 | 93 | 1016.1 |
| 20260905104723 | 56 | 172 | 0.0 | 1.7 | 0.00 | 0.09 | 0.00 | 94 | 1016.1 |
| 20260905104716 | 56 | 172 | 0.0 | 1.7 | 0.00 | 0.09 | 0.00 | 93 | 1016.1 |
| 20260905104215 | 56 | 172 | 0.0 | 1.7 | 0.00 | 0.09 | 0.00 | 94 | 1016.1 |
| 20260905103717 | 56 | 172 | 0.0 | 1.7 | 0.00 | 0.09 | 0.00 | 94 | 1016.1 |
| 20260905102715 | 56 | 165 | 0.0 | 1.7 | 0.00 | 0.09 | 0.00 | 94 | 1016.1 |
| 20260905102218 | 56 | 165 | 0.0 | 2.6 | 0.00 | 0.09 | 0.00 | 94 | 1016.1 |
| 20260905102214 | 56 | 165 | 0.0 | 2.6 | 0.00 | 0.09 | 0.00 | 94 | 1016.1 |
| 20260905101214 | 56 | 167 | 0.0 | 2.6 | 0.00 | 0.09 | 0.00 | 94 | 1016.1 |
| 20260905100714 | 56 | 171 | 0.0 | 2.6 | 0.00 | 0.09 | 0.00 | 94 | 1016.1 |
| 20260905100219 | 56 | 140 | 0.0 | 1.7 | 0.00 | 0.10 | 0.00 | 94 | 1016.1 |
| 20260905100213 | 56 | 140 | 0.0 | 1.7 | 0.00 | 0.09 | 0.00 | 94 | 1016.1 |
| 20260905095713 | 56 | 140 | 0.0 | 1.7 | 0.00 | 0.09 | 0.00 | 94 | 1016.2 |
| 20260905094713 | 56 | 140 | 0.0 | 1.7 | 0.00 | 0.10 | 0.00 | 94 | 1016.1 |
| 20260905094212 | 56 | 140 | 0.0 | 1.7 | 0.00 | 0.10 | 0.00 | 94 | 1016.1 |
| 20260905093714 | 56 | 140 | 0.0 | 1.7 | 0.00 | 0.10 | 0.00 | 94 | 1016.1 |
| 20260905093217 | 56 | 140 | 0.0 | 1.7 | 0.00 | 0.10 | 0.00 | 94 | 1016.0 |
| 20260905093211 | 56 | 140 | 0.0 | 1.7 | 0.00 | 0.10 | 0.00 | 94 | 1016.0 |
| 20260905092216 | 56 | 140 | 0.0 | 1.7 | 0.00 | 0.10 | 0.00 | 94 | 1015.9 |
| 20260905092212 | 56 | 140 | 0.0 | 1.7 | 0.00 | 0.10 | 0.00 | 94 | 1016.0 |
| 20260905091217 | 56 | 171 | 0.0 | 1.7 | 0.00 | 0.11 | 0.00 | 94 | 1015.8 |
| 20260905091212 | 56 | 140 | 0.0 | 1.7 | 0.00 | 0.10 | 0.00 | 94 | 1015.9 |
| 20260905090711 | 56 | 171 | 0.0 | 1.7 | 0.00 | 0.10 | 0.00 | 94 | 1015.9 |
| 20260905085711 | 56 | 146 | 0.0 | 1.7 | 0.00 | 0.11 | 0.00 | 94 | 1015.9 |
| 20260905085212 | 56 | 145 | 0.0 | 1.7 | 0.00 | 0.12 | 0.00 | 94 | 1015.9 |
| 20260905084716 | 56 | 145 | 0.0 | 1.7 | 0.00 | 0.13 | 0.00 | 93 | 1015.9 |
| 20260905084710 | 56 | 145 | 0.0 | 1.7 | 0.00 | 0.13 | 0.00 | 93 | 1015.9 |
| 20260905083715 | 56 | 145 | 0.0 | 1.7 | 0.00 | 0.16 | 0.00 | 93 | 1015.8 |
| 20260905083711 | 56 | 145 | 0.0 | 1.7 | 0.00 | 0.14 | 0.00 | 93 | 1015.9 |
| 20260905082709 | 56 | 145 | 0.0 | 0.9 | 0.00 | 0.17 | 0.00 | 93 | 1015.8 |
| 20260905082214 | 56 | 145 | 0.0 | 1.7 | 0.00 | 0.18 | 0.00 | 93 | 1015.8 |
| 20260905082210 | 56 | 145 | 0.0 | 1.7 | 0.00 | 0.17 | 0.00 | 93 | 1015.8 |
| 20260905081208 | 56 | 145 | 0.0 | 1.7 | 0.00 | 0.18 | 0.00 | 93 | 1015.8 |
| 20260905080710 | 56 | 145 | 0.0 | 1.7 | 0.00 | 0.18 | 0.00 | 93 | 1015.8 |
| 20260905080206 | 56 | 145 | 0.0 | 1.7 | 0.00 | 0.18 | 0.00 | 93 | 1015.7 |
| 20260905075705 | 56 | 145 | 0.0 | 1.7 | 0.00 | 0.18 | 0.00 | 93 | 1015.7 |
| 20260905075205 | 56 | 145 | 0.0 | 1.7 | 0.00 | 0.18 | 0.00 | 93 | 1015.6 |
| 20260905074705 | 56 | 115 | 0.0 | 1.7 | 0.00 | 0.18 | 0.00 | 93 | 1015.6 |
| 20260905074204 | 56 | 115 | 0.0 | 1.7 | 0.00 | 0.18 | 0.00 | 93 | 1015.5 |
| 20260905073704 | 56 | 115 | 0.0 | 1.7 | 0.00 | 0.18 | 0.00 | 93 | 1015.6 |
| 20260905073203 | 56 | 121 | 0.0 | 1.7 | 0.00 | 0.18 | 0.00 | 93 | 1015.5 |
| 20260905072702 | 56 | 121 | 0.0 | 1.7 | 0.00 | 0.18 | 0.00 | 93 | 1015.5 |
| 20260905072201 | 56 | 121 | 0.0 | 1.7 | 0.00 | 0.18 | 0.00 | 93 | 1015.5 |
| 20260905071701 | 56 | 126 | 0.0 | 1.7 | 0.00 | 0.18 | 0.00 | 93 | 1015.5 |
| 20260905071200 | 56 | 126 | 0.0 | 1.7 | 0.00 | 0.18 | 0.00 | 93 | 1015.4 |
| 20260905070702 | 56 | 126 | 0.0 | 1.7 | 0.00 | 0.18 | 0.00 | 93 | 1015.4 |
| 20260905070200 | 56 | 126 | 0.0 | 1.7 | 0.00 | 0.18 | 0.00 | 93 | 1015.4 |
| 20260905065700 | 56 | 38 | 0.0 | 1.7 | 0.00 | 0.18 | 0.18 | 93 | 1015.4 |
| 20260905065159 | 56 | 38 | 0.0 | 1.7 | 0.00 | 0.18 | 0.18 | 94 | 1015.4 |
| 20260905064657 | 56 | 39 | 0.0 | 1.7 | 0.00 | 0.18 | 0.18 | 94 | 1015.4 |
| 20260905064157 | 56 | 39 | 0.0 | 1.7 | 0.00 | 0.18 | 0.18 | 94 | 1015.4 |
| 20260905063657 | 56 | 42 | 0.0 | 1.7 | 0.00 | 0.18 | 0.18 | 94 | 1015.4 |
| 20260905063157 | 56 | 42 | 0.0 | 1.7 | 0.00 | 0.18 | 0.18 | 94 | 1015.3 |
| 20260905062655 | 56 | 42 | 0.0 | 1.7 | 0.00 | 0.18 | 0.18 | 94 | 1015.3 |
| 20260905062155 | 56 | 42 | 0.0 | 0.0 | 0.00 | 0.18 | 0.18 | 94 | 1015.4 |
| 20260905061656 | 56 | 42 | 0.0 | 1.7 | 0.00 | 0.18 | 0.18 | 94 | 1015.3 |
| 20260905061155 | 56 | 42 | 0.0 | 1.7 | 0.00 | 0.18 | 0.18 | 94 | 1015.3 |
| 20260905060655 | 56 | 42 | 0.0 | 0.0 | 0.00 | 0.18 | 0.18 | 94 | 1015.2 |
| 20260905060156 | 56 | 42 | 0.0 | 0.0 | 0.00 | 0.18 | 0.18 | 94 | 1015.3 |
| 20260905055656 | 55 | 42 | 0.0 | 1.7 | 0.00 | 0.18 | 0.18 | 94 | 1015.3 |
| 20260905055154 | 55 | 42 | 0.0 | 1.7 | 0.00 | 0.18 | 0.18 | 94 | 1015.3 |
| 20260905054653 | 55 | 42 | 0.0 | 0.0 | 0.00 | 0.18 | 0.18 | 93 | 1015.2 |
| 20260905054153 | 55 | 42 | 0.0 | 0.0 | 0.00 | 0.18 | 0.18 | 93 | 1015.2 |
| 20260905053656 | 55 | 42 | 0.0 | 0.0 | 0.00 | 0.18 | 0.18 | 92 | 1015.3 |
| 20260905053652 | 55 | 42 | 0.0 | 0.0 | 0.00 | 0.18 | 0.18 | 93 | 1015.3 |
| 20260905052657 | 56 | 42 | 0.0 | 1.7 | 0.00 | 0.18 | 0.18 | 92 | 1015.1 |
| 20260905052651 | 56 | 42 | 0.0 | 1.7 | 0.00 | 0.18 | 0.18 | 92 | 1015.1 |
| 20260905051651 | 56 | 59 | 0.0 | 1.7 | 0.00 | 0.18 | 0.18 | 92 | 1015.1 |
| 20260905051152 | 56 | 60 | 0.0 | 1.7 | 0.00 | 0.18 | 0.18 | 92 | 1015.2 |
| 20260905050656 | 56 | 59 | 0.0 | 0.9 | 0.00 | 0.18 | 0.18 | 92 | 1015.2 |
| 20260905050651 | 56 | 60 | 0.0 | 0.9 | 0.00 | 0.18 | 0.18 | 92 | 1015.1 |
| 20260905045652 | 56 | 60 | 0.0 | 0.9 | 0.00 | 0.18 | 0.18 | 92 | 1015.2 |
| 20260905045151 | 56 | 60 | 0.0 | 0.9 | 0.00 | 0.18 | 0.18 | 91 | 1015.2 |
| 20260905044648 | 56 | 60 | 0.0 | 0.9 | 0.00 | 0.18 | 0.18 | 91 | 1015.2 |
| 20260905044149 | 56 | 60 | 0.0 | 1.7 | 0.00 | 0.19 | 0.18 | 91 | 1015.1 |
| 20260905043649 | 56 | 60 | 0.0 | 1.7 | 0.00 | 0.19 | 0.18 | 91 | 1015.1 |
| 20260905043149 | 56 | 60 | 0.0 | 1.7 | 0.00 | 0.20 | 0.18 | 91 | 1015.0 |
| 20260905042649 | 56 | 60 | 0.0 | 1.7 | 0.00 | 0.20 | 0.18 | 91 | 1014.9 |
| 20260905042155 | 56 | 15 | 0.0 | 1.7 | 0.00 | 0.21 | 0.18 | 92 | 1014.9 |
| 20260905042149 | 56 | 40 | 0.0 | 1.7 | 0.00 | 0.21 | 0.18 | 91 | 1014.9 |
| 20260905041149 | 57 | 15 | 0.0 | 1.7 | 0.00 | 0.22 | 0.18 | 92 | 1014.8 |
| 20260905040649 | 57 | 15 | 0.0 | 0.0 | 0.00 | 0.22 | 0.18 | 92 | 1014.7 |
| 20260905040149 | 57 | 15 | 0.0 | 0.9 | 0.00 | 0.22 | 0.18 | 92 | 1014.7 |
| 20260905035647 | 57 | 15 | 0.0 | 0.9 | 0.00 | 0.22 | 0.18 | 92 | 1014.7 |
| 20260905035147 | 57 | 15 | 0.0 | 0.9 | 0.00 | 0.23 | 0.18 | 92 | 1014.6 |
| 20260905034646 | 57 | 15 | 0.0 | 1.7 | 0.00 | 0.23 | 0.18 | 92 | 1014.6 |
| 20260905034148 | 57 | 15 | 0.0 | 1.7 | 0.00 | 0.23 | 0.18 | 92 | 1014.6 |
| 20260905033651 | 57 | 15 | 0.0 | 1.7 | 0.00 | 0.23 | 0.18 | 92 | 1014.5 |
| 20260905033647 | 57 | 15 | 0.0 | 1.7 | 0.00 | 0.23 | 0.18 | 92 | 1014.6 |
| 20260905032647 | 57 | 15 | 0.0 | 1.7 | 0.00 | 0.24 | 0.18 | 92 | 1014.5 |
| 20260905032148 | 57 | 15 | 0.0 | 0.0 | 0.00 | 0.24 | 0.18 | 92 | 1014.4 |
| 20260905031648 | 58 | 15 | 0.0 | 0.0 | 0.00 | 0.25 | 0.18 | 92 | 1014.3 |
| 20260905031147 | 58 | 15 | 0.0 | 1.7 | 0.00 | 0.25 | 0.18 | 92 | 1014.2 |
| 20260905030646 | 58 | 15 | 0.0 | 1.7 | 0.00 | 0.25 | 0.18 | 92 | 1014.1 |
| 20260905030150 | 58 | 15 | 0.0 | 1.7 | 0.00 | 0.25 | 0.18 | 92 | 1014.2 |
| 20260905030145 | 58 | 15 | 0.0 | 1.7 | 0.00 | 0.25 | 0.18 | 92 | 1014.2 |
| 20260905025146 | 58 | 15 | 0.0 | 1.7 | 0.00 | 0.25 | 0.18 | 91 | 1014.1 |
| 20260905024644 | 58 | 15 | 0.0 | 0.0 | 0.00 | 0.25 | 0.18 | 91 | 1014.1 |
| 20260905024146 | 58 | 15 | 0.0 | 0.0 | 0.00 | 0.25 | 0.18 | 91 | 1014.1 |
| 20260905023644 | 58 | 15 | 0.0 | 0.0 | 0.00 | 0.25 | 0.18 | 91 | 1014.1 |
| 20260905023145 | 58 | 15 | 0.0 | 0.0 | 0.00 | 0.25 | 0.18 | 91 | 1014.0 |
| 20260905022650 | 58 | 15 | 0.0 | 1.7 | 0.00 | 0.25 | 0.18 | 91 | 1014.0 |
| 20260905022645 | 58 | 15 | 0.0 | 1.7 | 0.00 | 0.25 | 0.18 | 91 | 1014.1 |
| 20260905021647 | 58 | 15 | 0.0 | 1.7 | 0.00 | 0.25 | 0.18 | 90 | 1014.0 |
| 20260905021643 | 58 | 15 | 0.0 | 1.7 | 0.00 | 0.25 | 0.18 | 91 | 1014.0 |
| 20260905020644 | 58 | 15 | 0.0 | 1.7 | 0.00 | 0.25 | 0.18 | 90 | 1013.9 |
| 20260905020142 | 59 | 15 | 0.0 | 1.7 | 0.00 | 0.25 | 0.18 | 90 | 1013.9 |
| 20260905015644 | 59 | 15 | 0.0 | 1.7 | 0.00 | 0.25 | 0.18 | 90 | 1014.0 |